Location: ČR
(50.0000°N, 15.0000°E)
Time: 06:49:42
(UTC+02:00)

A-11 Canister half - Pass Details

Date: 16 March 2026
Orbit: 1514 x 1685 km, 47.2° (Epoch: 18 April)

Event Time Altitude Azimuth Distance (km) Brightness Sun altitude
Rises 13:33:19 0° 220° (SW) 4,819 12.6 35.3°
Reaches altitude 10° 13:36:34 10° 214° (SW) 3,858 12.5 35.0°
Maximum altitude 13:45:45 45° 146° (SE) 2,147 10.5 34.3°
Drops below altitude 10° 13:55:10 10° 78° (ENE) 3,951 10.9 33.6°
Sets 13:58:31 0° 73° (ENE) 4,944 11.3 33.3°
